Miscellaneous Local Product
Issued by NWS Hastings, NE

Home | Current Version | Previous Version | Graphics & Text | Print | Product List | Glossary On
Versions: 1 2 3 4 5 6 7 8 9 10 11 12 13 14 15 16 17 18 19 20 21 22 23 24 25 26 27 28 29 30 31 32 33 34 35 36 37 38 39 40 41 42 43 44 45 46 47 48 49 50
000
AXUS43 KGID 281002
MISGRI

GID CWA HOURLY WEATHER ROUNDUP
NATIONAL WEATHER SERVICE HASTINGS NE
500 AM CDT THU AUG 28 2014

NOTE: "FAIR" INDICATES FEW OR NO CLOUDS BELOW 12,000 FEET WITH NO
SIGNIFICANT WEATHER AND/OR OBSTRUCTIONS TO VISIBILITY.

...SOUTH CENTRAL NEBRASKA...

CITY           SKY/WX    TMP DP  RH WIND       PRES   REMARKS
GRAND ISLAND   CLOUDY    68  66  93 SE3       29.96S
HASTINGS       CLOUDY    67  64  90 CALM      29.97R
KEARNEY        CLOUDY    66  64  94 SE9       29.94F
ORD            LGT RAIN  69  67  93 SE8       29.93F
YORK           CLOUDY    66 N/A N/A CALM      29.96F
AURORA         CLOUDY    67  67 100 CALM      29.96R
LEXINGTON      DRIZZLE   67  66  96 CALM      29.94F
HOLDREGE       DRIZZLE   66  64  93 CALM      29.95S
HEBRON         MOCLDY    70  66  89 CALM      29.93F

...NEBRASKA PANHANDLE...

CITY           SKY/WX    TMP DP  RH WIND       PRES   REMARKS
CHADRON        LGT RAIN  63  62  97 NW6       30.00F FOG
ALLIANCE       CLOUDY    63  61  93 NW5       30.02F
SCOTTSBLUFF    MOCLDY    58  58 100 NW6       30.04S
SIDNEY         MOCLDY    61  58  90 W14       30.04R

...WESTERN AND NORTH CENTRAL NEBRASKA...

CITY           SKY/WX    TMP DP  RH WIND       PRES   REMARKS
VALENTINE      CLOUDY    68  68 100 SE5       29.94F
AINSWORTH      CLOUDY    67  67  98 CALM      29.94F
ONEILL         HVY RAIN  69  69  98 SE10      29.95S
BROKEN BOW     CLOUDY    67  65  93 S3        29.95S
IMPERIAL       PTCLDY    59  57  93 CALM      29.96F
NORTH PLATTE   LGT RAIN  64  62  93 E9        29.92F
MCCOOK         MOCLDY    62  61  96 SE7       29.93F

...EASTERN NEBRASKA...

CITY           SKY/WX    TMP DP  RH WIND       PRES   REMARKS
NORFOLK        RAIN      69  67  93 SE12      29.96F FOG
SO SIOUX CITY  LGT RAIN  69  67  93 SE5       29.99S
TEKAMAH        HVY RAIN  69  68  96 E5        29.98F FOG
COLUMBUS       CLOUDY    68  66  94 SE7       29.98S
ALBION         LGT RAIN  69  67  93 S9        29.97R
OMAHA EPPLEY   TSTM      71  68  90 SE13      29.98F
OFFUTT AFB     TSTM      71  71 100 E7        29.97F
MILLARD        TSTM      71  69  94 E3        29.97F
LINCOLN        LGT RAIN  72  69  90 SE14      29.93F
NEBRASKA CITY  CLOUDY    71  71 100 CALM      29.97S
BEATRICE       CLOUDY    72  72  99 SE9       29.94F
FALLS CITY     CLOUDY    73  72  96 E8        29.95S

...NORTHERN KANSAS...

CITY           SKY/WX    TMP DP  RH WIND       PRES   REMARKS
GOODLAND       MOCLDY    58  57  97 E3        30.01F
HILL CITY      LGT RAIN  66  64  93 NE8       29.97S FOG
NORTON         PTSUNNY   63  59  88 CALM      29.94F
PHILLIPSBURG   HVY RAIN  66  66 100 NW5G16    29.98R
SMITH CENTER   CLOUDY    66  66 100 NW8       29.96S
BELOIT         CLOUDY    73  70  88 SE5       29.90S
HAYS           MOCLDY    68  63  83 NW14      29.96R
RUSSELL        MOCLDY    73  66  78 S13       29.91S
CONCORDIA      CLOUDY    73  70  90 S9        29.92S
SALINA         LGT RAIN  78  67  68 S6        29.93S
TOPEKA         CLOUDY    78  72  81 SE6       29.95S



USA.gov is the U.S. government's official web portal to all federal, state and local government web resources and services.